Location: ??????
(41.3747°N, 22.5491°E)
Time: 05:42:37
(UTC+00:00)

Cosmos 1689 Rocket - Pass Details

Date: 01 December 2020
Orbit: 356 x 370 km, 97.5° (Epoch: 20 January)

Event Time Altitude Azimuth Distance (km) Brightness Sun altitude
Rises 04:48:42 0° 206° (SSW) 2,171 5.8 -9.0°
Reaches altitude 10° 04:51:25 10° 238° (WSW) 1,336 4.5 -8.5°
Enters shadow 04:53:30 12° 283° (WNW) 1,240 4.0 -8.1°
Exits shadow 05:18:24 -48° 6° (N) 10,032 9.1 -3.9°
